Home > Weather > Marrakech > Past weeks

Flag for Morocco Weather for the Past 2 Weeks in Marrakech, Morocco

Now
64 °F

Passing clouds.


Feels Like: 64 °F
Forecast: 50 / 77 °F
Wind: 6 mph from Northwest

Location: Marrakech Airport

Current Time: Feb 12, 2016 at 12:31:30 PM

Latest Report: Feb 12, 2016 at 12:00 PM


Visibility: N/A

Pressure: 30.24 "Hg

Humidity: 68%

Dew point: 54 °F

Location of MarrakechLocation

Historic Weather in Marrakech — Graph

°F

Marrakech Temperature Yesterday

Maximum temperature yesterday: 70 °F (at 4:30 PM)
Minimum temperature yesterday: 50 °F (at 4:00 AM)
Average temperature yesterday: 58 °F

High & Low Weather Summary for the Past Weeks

 TemperatureHumidityPressure
High81 °F (Feb 8, 3:30 PM)100% (Feb 11, 4:30 AM)30.51 "Hg (Feb 11, 4:30 AM)
Low41 °F (Jan 31, 7:30 AM)18% (Feb 8, 3:00 PM)30.18 "Hg (Feb 3, 3:30 PM)
Average60 °F55%30.32 "Hg
* Reported Jan 28 11:00 AM — Feb 12 11:00 AM, Marrakech, Weather by CustomWeather, © 2016

Note: Actual official high and low records may vary slightly from our data, if they occured in-between our weather recording intervals... More about our weather records

Advertising

Marrakech Weather History for the Previous 24 Hours

 ConditionsComfort  
Time TempWeatherWind HumidityBarometerVisibility
11:00 AM
Fri, Feb 12
63 °FPassing clouds.5 mph68%30.30 "HgN/A
10:30 AM61 °FPassing clouds.5 mph72%30.30 "HgN/A
10:00 AM57 °FPassing clouds.3 mph77%30.30 "HgN/A
9:30 AM55 °FClear.6 mph88%30.27 "Hg5 mi
9:00 AM54 °FClear.7 mph88%30.27 "Hg5 mi
8:30 AM50 °FClear.6 mph100%30.27 "Hg5 mi
8:00 AM48 °FClear.6 mph100%30.24 "Hg5 mi
7:30 AM48 °FSunny.3 mph94%30.24 "Hg10 mi
7:00 AM48 °FClear.5 mph100%30.21 "Hg5 mi
6:30 AM50 °FClear.6 mph94%30.21 "Hg5 mi
6:00 AM50 °FClear.7 mph100%30.21 "Hg10 mi
5:30 AM52 °FClear.5 mph94%30.21 "Hg10 mi
5:00 AM52 °FClear.5 mph94%30.21 "Hg10 mi
4:30 AM52 °FClear.6 mph88%30.21 "Hg10 mi
4:00 AM54 °FClear.7 mph88%30.18 "Hg10 mi
3:30 AM54 °FClear.7 mph88%30.21 "Hg10 mi
3:00 AM54 °FClear.6 mph94%30.21 "Hg10 mi
2:30 AM52 °FClear.5 mph94%30.24 "Hg10 mi
2:00 AM54 °FClear.3 mph88%30.24 "Hg10 mi
1:30 AM55 °FClear.6 mph88%30.24 "Hg10 mi
1:00 AM55 °FClear.6 mph82%30.27 "Hg10 mi
12:30 AM55 °FClear.5 mph88%30.27 "Hg10 mi
12:00 AM57 °FClear.2 mph77%30.27 "Hg10 mi
11:30 PM
Thu, Feb 11
57 °FPassing clouds.5 mph77%30.27 "HgN/A
11:00 PM59 °FClear.5 mph72%30.27 "Hg10 mi
10:00 PM59 °FClear.5 mph72%30.24 "Hg10 mi
9:30 PM59 °FClear.6 mph72%30.21 "Hg10 mi
9:00 PM61 °FClear.8 mph68%30.21 "Hg10 mi
8:30 PM61 °FClear.8 mph68%30.21 "Hg10 mi
8:00 PM63 °FClear.8 mph64%30.24 "Hg10 mi
7:30 PM64 °FClear.7 mph60%30.24 "Hg10 mi
7:00 PM66 °FClear.7 mph56%30.21 "Hg10 mi
6:30 PM66 °FClear.7 mph60%30.21 "Hg10 mi
6:00 PM68 °FPassing clouds.6 mph53%30.21 "HgN/A
5:30 PM68 °FClear.2 mph53%30.21 "Hg10 mi
5:00 PM70 °FPassing clouds.6 mph50%30.18 "HgN/A
4:30 PM70 °FPassing clouds.7 mph53%30.18 "HgN/A
4:00 PM68 °FPassing clouds.6 mph56%30.18 "HgN/A
3:30 PM68 °FPassing clouds.5 mph56%30.18 "HgN/A
3:00 PM66 °FPassing clouds.5 mph60%30.18 "HgN/A
2:30 PM64 °FPassing clouds.5 mph64%30.18 "HgN/A
2:00 PM64 °FPassing clouds.5 mph64%30.21 "HgN/A
1:30 PM63 °FSunny.3 mph68%30.21 "Hg10 mi
1:00 PM61 °FScattered clouds.5 mph72%30.24 "HgN/A
12:30 PM59 °FPartly sunny.7 mph77%30.27 "HgN/A
12:00 PM57 °FPartly sunny.9 mph82%30.27 "HgN/A
Weather by CustomWeather, © 2016

See weather overviewHow to use our weather pages